Flag Weather past 2 weeks in Dover, Delaware, U.S.A.

Now
45 °F

Light rain. Partly cloudy.


Feels Like: 41 °F
Forecast: 34 / 46 °F
Wind: 8 mph from Northeast

Location: Dover Air Force Base

Current Time: Nov 26, 2014 at 3:22:03 AM

Latest Report: Nov 26, 2014 at 2:58 AM


Visibility: 10 mi

Pressure: 30.12 "Hg

Humidity: 93%

Dew point: 43 °F

Location of DoverLocation

Historic Weather in Dover — Graph

°F

Dover temperature yesterday

Maximum temperature yesterday: 63 °F (at 12:58 AM)
Minimum temperature yesterday: 46 °F (at 11:58 PM)
Average temperature yesterday: 55 °F

Past Weeks' High & Low Weather Summary

 TemperatureHumidityPressure
High71 °F (Nov 24, 12:58 PM)100% (Nov 11, 1:04 AM)30.54 "Hg (Nov 11, 1:04 AM)
Low21 °F (Nov 19, 6:58 AM)29% (Nov 21, 2:58 PM)29.53 "Hg (Nov 17, 3:58 PM)
Average43 °F68%30.08 "Hg
* Reported Nov 11 1:04 AM — Nov 26 1:58 AM, Dover, Weather by CustomWeather, © 2014

Note: Actual official high and low records may vary slightly from our data, if they occured in-between our weather recording intervals... More about our weather records

Advertising

Dover weather history for previous 24 hours

 ConditionsComfort  
Time TempWeatherWind HumidityBarometerVisibility
1:58 AM
Nov 26
46 °FLight rain. Passing clouds.3 mph85%30.14 "Hg10 mi
12:58 AM46 °FPassing clouds.1 mph84%30.16 "Hg10 mi
11:58 PM
Nov 25
46 °FClear.1 mph78%30.15 "Hg10 mi
10:58 PM46 °FClear.2 mph76%30.14 "Hg10 mi
9:58 PM48 °FClear.2 mph68%30.15 "Hg10 mi
8:58 PM48 °FClear.2 mph69%30.12 "Hg10 mi
7:58 PM47 °FClear.1 mph80%30.11 "Hg10 mi
6:58 PM48 °FPassing clouds.2 mph68%30.10 "Hg10 mi
5:58 PM49 °FClear.2 mph64%30.08 "Hg10 mi
4:58 PM51 °FOvercast.2 mph56%30.06 "Hg10 mi
3:58 PM52 °FSunny.2 mph53%30.04 "Hg10 mi
2:58 PM53 °FSunny.7 mph50%30.03 "Hg10 mi
1:58 PM54 °FPassing clouds.7 mph48%30.02 "Hg10 mi
12:58 PM55 °FOvercast.10 mph49%30.03 "Hg10 mi
11:58 AM55 °FMostly cloudy.10 mph51%30.04 "Hg10 mi
10:58 AM56 °FOvercast.8 mph52%30.03 "Hg10 mi
9:58 AM56 °FPartly sunny.10 mph52%30.03 "Hg10 mi
8:58 AM56 °FPassing clouds.9 mph56%30.00 "Hg10 mi
7:58 AM56 °FSunny.9 mph59%29.96 "Hg10 mi
6:58 AM60 °FSunny.15 mph87%29.93 "Hg10 mi
5:58 AM62 °FOvercast.7 mph95%29.89 "Hg10 mi
5:03 AM63 °FPassing clouds.8 mph94%29.89 "Hg10 mi
4:58 AM62 °FPassing clouds.9 mph95%29.89 "Hg10 mi
3:58 AM62 °FMostly cloudy.10 mph92%29.86 "Hg10 mi
Weather by CustomWeather, © 2014

See weather overviewHow to use our weather pages